Time,TemperatureF,DewpointF,PressureIn,WindDirection,WindDirectionDegrees,WindSpeedMPH,WindSpeedGustMPH,Humidity,HourlyPrecipIn,Conditions,Clouds,dailyrainin,SoftwareType,DateUTC
2013-10-06 13:04:00,65.3,61.8,29.90,SSW,203,1.1,1.1,88,0.00,,,0.00,WUHU216HW,2013-10-06 17:04:00,
2013-10-06 13:05:00,65.3,61.8,29.90,SSW,203,1.1,1.1,88,0.00,,,0.00,WUHU216HW,2013-10-06 17:05:00,
2013-10-06 13:10:00,65.3,61.8,29.90,SSW,203,1.1,1.1,88,0.00,,,0.00,WUHU216HW,2013-10-06 17:10:00,
2013-10-06 14:00:00,57.6,56.2,29.93,NE,45,0.9,0.9,95,0.00,,,0.00,WUHU216HW,2013-10-06 18:00:00,
2013-10-06 14:05:00,57.6,56.2,29.93,ENE,68,1.3,1.3,95,0.00,,,0.00,WUHU216HW,2013-10-06 18:05:00,
2013-10-06 14:10:00,57.6,56.2,29.93,ENE,77,0.7,1.3,95,0.00,,,0.00,WUHU216HW,2013-10-06 18:10:00,
2013-10-06 14:15:00,57.8,56.3,29.93,NE,45,1.3,1.3,95,0.00,,,0.00,WUHU216HW,2013-10-06 18:15:00,
2013-10-06 14:20:00,57.8,56.3,29.93,ENE,70,1.5,2.0,95,0.00,,,0.00,WUHU216HW,2013-10-06 18:20:00,
2013-10-06 14:25:00,57.8,56.3,29.92,ENE,68,1.1,2.0,95,0.00,,,0.00,WUHU216HW,2013-10-06 18:25:00,
2013-10-06 14:30:00,58.0,56.5,29.93,ENE,68,1.1,1.6,95,0.00,,,0.00,WUHU216HW,2013-10-06 18:30:00,
2013-10-06 14:35:00,58.0,56.5,29.92,ENE,68,0.9,1.6,95,0.00,,,0.00,WUHU216HW,2013-10-06 18:35:00,
2013-10-06 14:40:00,58.0,56.5,29.92,ENE,63,1.2,1.6,95,0.00,,,0.00,WUHU216HW,2013-10-06 18:40:00,
2013-10-06 14:45:00,58.0,56.5,29.93,NE,45,1.8,1.8,95,0.00,,,0.00,WUHU216HW,2013-10-06 18:45:00,
2013-10-06 14:50:00,58.0,56.5,29.93,East,91,0.8,2.0,95,0.00,,,0.00,WUHU216HW,2013-10-06 18:50:00,
2013-10-06 14:55:00,58.0,56.5,29.93,ENE,68,0.7,2.0,95,0.00,,,0.00,WUHU216HW,2013-10-06 18:55:00,
2013-10-06 15:00:00,58.0,56.5,29.92,NE,50,0.5,1.1,95,0.00,,,0.00,WUHU216HW,2013-10-06 19:00:00,
2013-10-06 15:05:00,58.1,56.7,29.93,South,180,1.1,1.3,95,0.00,,,0.00,WUHU216HW,2013-10-06 19:05:00,
2013-10-06 15:10:00,58.1,56.7,29.93,SW,225,1.1,1.3,95,0.00,,,0.00,WUHU216HW,2013-10-06 19:10:00,
2013-10-06 15:15:00,58.1,56.7,29.92,East,90,1.1,1.3,95,0.00,,,0.00,WUHU216HW,2013-10-06 19:15:00,
2013-10-06 15:20:00,58.0,56.5,29.92,ENE,68,1.3,1.6,95,0.00,,,0.00,WUHU216HW,2013-10-06 19:20:00,
2013-10-06 15:25:00,58.0,56.5,29.92,ENE,68,0.6,1.8,95,0.00,,,0.00,WUHU216HW,2013-10-06 19:25:00,
2013-10-06 15:30:00,58.1,56.7,29.92,East,89,0.6,1.8,95,0.00,,,0.00,WUHU216HW,2013-10-06 19:30:00,
2013-10-06 15:35:00,58.3,56.9,29.92,ENE,68,0.8,1.8,95,0.00,,,0.00,WUHU216HW,2013-10-06 19:35:00,
2013-10-06 15:40:00,58.3,56.9,29.92,ENE,68,1.3,1.3,95,0.00,,,0.00,WUHU216HW,2013-10-06 19:40:00,
2013-10-06 15:45:00,58.3,56.9,29.92,South,180,4.0,4.0,95,0.00,,,0.00,WUHU216HW,2013-10-06 19:45:00,
2013-10-06 15:50:00,58.3,56.9,29.92,East,90,0.4,4.0,95,0.00,,,0.00,WUHU216HW,2013-10-06 19:50:00,
2013-10-06 15:55:00,58.1,56.4,29.92,ENE,66,1.2,4.0,94,0.00,,,0.00,WUHU216HW,2013-10-06 19:55:00,
2013-10-06 16:00:00,58.1,56.4,29.92,North,11,1.1,1.8,94,0.00,,,0.00,WUHU216HW,2013-10-06 20:00:00,
2013-10-06 16:05:00,58.1,56.7,29.92,SSE,158,0.4,1.8,95,0.00,,,0.00,WUHU216HW,2013-10-06 20:05:00,
2013-10-06 16:10:00,58.1,56.7,29.92,SW,225,2.2,2.2,95,0.00,,,0.00,WUHU216HW,2013-10-06 20:10:00,
2013-10-06 16:15:00,58.1,56.4,29.92,SSE,153,1.5,2.9,94,0.00,,,0.00,WUHU216HW,2013-10-06 20:15:00,
2013-10-06 16:20:00,58.0,56.5,29.91,ENE,68,0.5,2.9,95,0.00,,,0.00,WUHU216HW,2013-10-06 20:20:00,
2013-10-06 16:25:00,58.0,56.5,29.92,NNW,340,0.8,1.3,95,0.00,,,0.00,WUHU216HW,2013-10-06 20:25:00,
2013-10-06 16:30:00,58.0,56.5,29.91,SW,214,1.3,3.4,95,0.00,,,0.00,WUHU216HW,2013-10-06 20:30:00,
2013-10-06 16:35:00,58.0,56.5,29.92,ENE,68,1.3,3.4,95,0.00,,,0.00,WUHU216HW,2013-10-06 20:35:00,
2013-10-06 16:40:00,58.0,56.5,29.91,East,83,0.5,2.5,95,0.00,,,0.00,WUHU216HW,2013-10-06 20:40:00,
2013-10-06 16:45:00,58.0,56.5,29.91,ENE,68,1.1,2.5,95,0.00,,,0.00,WUHU216HW,2013-10-06 20:45:00,
2013-10-06 16:50:00,58.0,56.5,29.91,ENE,68,1.1,1.8,95,0.00,,,0.00,WUHU216HW,2013-10-06 20:50:00,
2013-10-06 16:55:00,58.0,56.5,29.91,ENE,68,0.9,1.8,95,0.00,,,0.00,WUHU216HW,2013-10-06 20:55:00,
2013-10-06 17:00:00,58.0,56.5,29.91,NE,47,0.9,1.1,95,0.00,,,0.00,WUHU216HW,2013-10-06 21:00:00,
2013-10-06 17:06:00,58.0,56.5,29.91,South,180,0.7,1.1,95,0.00,,,0.00,WUHU216HW,2013-10-06 21:06:00,
2013-10-06 17:10:00,58.0,56.5,29.91,ENE,59,0.5,1.6,95,0.00,,,0.00,WUHU216HW,2013-10-06 21:10:00,
2013-10-06 17:15:00,58.0,56.5,29.92,NNE,23,0.4,1.6,95,0.00,,,0.00,WUHU216HW,2013-10-06 21:15:00,
2013-10-06 17:20:00,58.0,56.5,29.92,ENE,68,1.1,1.1,95,0.00,,,0.00,WUHU216HW,2013-10-06 21:20:00,
2013-10-06 17:25:00,57.8,56.3,29.91,ENE,68,0.6,1.8,95,0.00,,,0.00,WUHU216HW,2013-10-06 21:25:00,
2013-10-06 17:30:00,57.8,56.3,29.91,ENE,68,0.7,1.8,95,0.00,,,0.00,WUHU216HW,2013-10-06 21:30:00,
2013-10-06 17:35:00,57.8,56.3,29.91,SW,225,1.1,1.8,95,0.00,,,0.00,WUHU216HW,2013-10-06 21:35:00,
2013-10-06 17:40:00,57.8,56.3,29.91,ENE,68,1.6,1.8,95,0.00,,,0.00,WUHU216HW,2013-10-06 21:40:00,
2013-10-06 17:45:00,57.8,56.3,29.91,NE,45,1.3,3.4,95,0.00,,,0.00,WUHU216HW,2013-10-06 21:45:00,
2013-10-06 17:50:00,57.6,56.2,29.91,NE,45,0.4,3.4,95,0.00,,,0.00,WUHU216HW,2013-10-06 21:50:00,
2013-10-06 17:55:00,57.6,56.2,29.91,ENE,65,0.8,1.6,95,0.00,,,0.00,WUHU216HW,2013-10-06 21:55:00,
2013-10-06 18:00:00,57.6,56.2,29.92,NE,45,1.1,1.6,95,0.00,,,0.00,WUHU216HW,2013-10-06 22:00:00,
2013-10-06 18:05:00,57.6,56.2,29.92,ENE,68,0.9,1.1,95,0.00,,,0.00,WUHU216HW,2013-10-06 22:05:00,
2013-10-06 18:10:00,57.4,56.0,29.92,ESE,105,0.4,1.1,95,0.00,,,0.00,WUHU216HW,2013-10-06 22:10:00,
2013-10-06 18:15:00,57.6,56.2,29.92,East,100,1.0,1.8,95,0.00,,,0.00,WUHU216HW,2013-10-06 22:15:00,
2013-10-06 18:21:00,57.4,56.0,29.92,WSW,248,0.9,1.8,95,0.00,,,0.00,WUHU216HW,2013-10-06 22:21:00,
2013-10-06 18:26:00,57.4,56.0,29.92,NE,51,0.6,0.9,95,0.00,,,0.00,WUHU216HW,2013-10-06 22:26:00,
2013-10-06 18:31:00,57.4,56.0,29.92,NE,53,0.2,1.1,95,0.00,,,0.00,WUHU216HW,2013-10-06 22:31:00,
2013-10-06 18:36:00,57.4,56.0,29.92,ENE,68,0.4,1.1,95,0.00,,,0.00,WUHU216HW,2013-10-06 22:36:00,
2013-10-06 18:41:00,57.4,56.0,29.92,ENE,68,0.6,1.1,95,0.00,,,0.00,WUHU216HW,2013-10-06 22:41:00,
2013-10-06 18:46:00,57.4,56.0,29.91,ESE,113,1.6,2.7,95,0.00,,,0.00,WUHU216HW,2013-10-06 22:46:00,
2013-10-06 18:51:00,57.4,56.0,29.92,SW,225,1.6,2.7,95,0.00,,,0.00,WUHU216HW,2013-10-06 22:51:00,
2013-10-06 18:56:00,57.4,56.0,29.91,ENE,68,0.9,2.0,95,0.00,,,0.00,WUHU216HW,2013-10-06 22:56:00,
2013-10-06 19:02:00,57.4,56.0,29.91,NE,51,0.9,1.1,95,0.00,,,0.00,WUHU216HW,2013-10-06 23:02:00,
2013-10-06 19:07:00,57.4,56.0,29.91,ENE,68,0.7,1.1,95,0.00,,,0.00,WUHU216HW,2013-10-06 23:07:00,
2013-10-06 19:12:00,57.4,56.0,29.91,ENE,68,1.1,1.3,95,0.00,,,0.00,WUHU216HW,2013-10-06 23:12:00,
2013-10-06 19:17:00,57.4,56.0,29.91,East,90,1.8,1.8,95,0.00,,,0.00,WUHU216HW,2013-10-06 23:17:00,
2013-10-06 19:22:00,57.4,56.0,29.91,ENE,68,1.1,1.8,95,0.00,,,0.00,WUHU216HW,2013-10-06 23:22:00,
2013-10-06 19:27:00,57.4,56.0,29.91,ENE,68,1.1,1.8,95,0.00,,,0.00,WUHU216HW,2013-10-06 23:27:00,
2013-10-06 19:32:00,57.4,56.0,29.92,ENE,68,0.8,1.8,95,0.00,,,0.00,WUHU216HW,2013-10-06 23:32:00,
2013-10-06 19:37:00,57.4,56.0,29.91,ENE,75,0.7,1.8,95,0.00,,,0.00,WUHU216HW,2013-10-06 23:37:00,
2013-10-06 19:42:00,57.4,56.0,29.91,ENE,68,0.9,1.6,95,0.00,,,0.00,WUHU216HW,2013-10-06 23:42:00,
2013-10-06 19:47:00,57.4,56.0,29.91,ENE,69,0.8,1.6,95,0.00,,,0.00,WUHU216HW,2013-10-06 23:47:00,
2013-10-06 19:52:00,57.4,56.0,29.91,ENE,68,0.9,1.6,95,0.00,,,0.00,WUHU216HW,2013-10-06 23:52:00,
2013-10-06 19:57:00,57.4,56.0,29.91,ENE,60,0.8,1.1,95,0.00,,,0.00,WUHU216HW,2013-10-06 23:57:00,
2013-10-06 20:02:00,57.4,56.0,29.91,NE,45,1.1,1.1,95,0.00,,,0.00,WUHU216HW,2013-10-07 00:02:00,
2013-10-06 20:07:00,57.4,56.0,29.91,NE,45,1.3,1.3,95,0.00,,,0.00,WUHU216HW,2013-10-07 00:07:00,
2013-10-06 20:12:00,57.4,56.0,29.91,NNE,23,0.4,1.3,95,0.00,,,0.00,WUHU216HW,2013-10-07 00:12:00,
2013-10-06 20:17:00,57.6,56.2,29.91,NNE,23,1.1,1.3,95,0.00,,,0.00,WUHU216HW,2013-10-07 00:17:00,
2013-10-06 20:22:00,57.6,56.2,29.91,ENE,68,1.0,1.3,95,0.00,,,0.00,WUHU216HW,2013-10-07 00:22:00,
2013-10-06 20:27:00,57.4,56.0,29.91,WSW,248,1.1,2.5,95,0.00,,,0.00,WUHU216HW,2013-10-07 00:27:00,
2013-10-06 20:32:00,57.6,56.2,29.91,ENE,62,0.8,2.5,95,0.00,,,0.00,WUHU216HW,2013-10-07 00:32:00,
2013-10-06 20:37:00,57.6,56.2,29.91,NNW,333,1.4,2.0,95,0.00,,,0.00,WUHU216HW,2013-10-07 00:37:00,
2013-10-06 20:42:00,57.4,56.0,29.91,NE,45,0.0,2.0,95,0.00,,,0.00,WUHU216HW,2013-10-07 00:42:00,
2013-10-06 20:47:00,57.6,56.2,29.91,East,90,0.4,0.4,95,0.00,,,0.00,WUHU216HW,2013-10-07 00:47:00,
2013-10-06 20:52:00,57.4,56.0,29.91,ENE,68,0.9,1.3,95,0.00,,,0.00,WUHU216HW,2013-10-07 00:52:00,
2013-10-06 20:57:00,57.4,56.0,29.91,NE,37,0.5,1.3,95,0.00,,,0.00,WUHU216HW,2013-10-07 00:57:00,